Location: Sankt+Gallen
(47.4262°N, 9.3755°E)
Time: 04:56:22
(UTC+01:00)

ARIANE 6 FM1 Upper Stage - Pass Details

Date: 18 February 2026
Orbit: 523 x 607 km, 62.0° (Epoch: 11 March)

Event Time Altitude Azimuth Distance (km) Brightness Sun altitude
Rises 20:17:02 0° 303° (WNW) 2,659 7.2 -25.3°
Reaches altitude 10° 20:19:53 10° 282° (WNW) 1,768 6.2 -25.8°
Maximum altitude 20:22:20 16° 243° (WSW) 1,431 5.3 -26.2°
Enters shadow 20:24:43 10° 206° (SSW) 1,755 5.3 -26.6°
